Location: Kershaw
(34.5481°N, 80.5823°W)
Time: 15:12:50
(UTC+00:00)

Courier 1B Rocket - Pass Details

Date: 03 October 2022
Orbit: 920 x 1202 km, 28.2° (Epoch: 08 December)

Event Time Altitude Azimuth Distance (km) Brightness Sun altitude
Rises 22:45:22 0° 226° (SW) 3,868 9.1 2.9°
Reaches altitude 10° 22:48:38 10° 214° (SW) 2,863 8.1 2.2°
Maximum altitude 22:54:15 27° 160° (SSE) 1,840 6.4 1.1°
Drops below altitude 10° 22:59:36 10° 105° (ESE) 2,707 6.8 0.0°
Enters shadow 23:02:27 - 94° (E) 3,581 7.3 -0.6°
Sets 23:02:35 0° 93° (E) 3,619 - -0.6°
